This demonstration page uses our WeatherBlox Daily Observations layout. Learn more.

Left ArrowRight Arrow

Hourly Observations for July 21, 2015

Temp ( °F °C ) Dew Point ( °F °C ) Humidity (%) Winds ( mph kmh ) Pressure ( in mb ) Visibility ( mi km ) Precip ( " mm )
12:53 am 00:53 Mostly Clear 71 21.7 70 21.1 96 96 N N/A 29.78 1008 10 16 0.01 0.25
1:53 am 01:53 Mostly Clear 71 21.7 70 21.1 96 96 N N/A 29.76 1008 9 14 N/A
2:53 am 02:53 Mostly Clear 72 22.2 70 21.1 94 94 N N/A 29.75 1007 10 16 N/A
3:53 am 03:53 Mostly Clear 71 21.7 69 20.6 94 94 NNW 3 6 29.74 1007 10 16 N/A
4:53 am 04:53 Cloudy 71 21.7 70 21.1 96 96 N N/A 29.73 1007 10 16 N/A
5:53 am 05:53 Cloudy 71 21.7 70 21.1 96 96 N N/A 29.74 1007 9 14 N/A
6:32 am 06:32 Cloudy 71 21.7 70 21.1 96 96 N N/A 29.77 1008 8 13 N/A
6:53 am 06:53 Cloudy 72 22.2 71 21.7 97 97 N N/A 29.75 1008 9 14 N/A
7:12 am 07:12 Cloudy 72 22.2 70 21.1 94 94 N N/A 29.77 1008 9 14 N/A
7:53 am 07:53 Mostly Cloudy 73 22.8 70 21.1 90 90 WNW 6 9 29.77 1008 10 16 N/A
8:06 am 08:06 Partly Cloudy 74 23.3 70 21.1 88 88 NW 6 9 29.80 1009 9 14 N/A
8:33 am 08:33 Mostly Cloudy 74 23.3 71 21.7 91 91 NW 6 9 29.80 1009 9 14 N/A
8:49 am 08:49 Mostly Cloudy 73 23 70 21 89 89 WNW 6 9 29.80 1009 10 16 N/A
8:53 am 08:53 Mostly Cloudy 75 23.9 71 21.7 88 88 NW 6 9 29.79 1009 10 16 N/A
9:53 am 09:53 Sunny 78 25.6 71 21.7 79 79 NNW 7 11 29.80 1009 10 16 N/A
10:53 am 10:53 Mostly Cloudy 81 27.2 72 22.2 74 74 NNW 8 13 29.80 1009 10 16 N/A
11:12 am 11:12 Partly Cloudy 80 26.7 71 21.7 74 74 NW 9 15 29.80 1009 10 16 N/A
11:53 am 11:53 Partly Cloudy 82 27.8 71 21.7 69 69 NNW 8 13 29.81 1010 10 16 N/A
12:11 pm 12:11 Mostly Cloudy 81 27.2 70 21.1 69 69 NW 7 11 29.80 1009 10 16 N/A
12:35 pm 12:35 Mostly Cloudy 82 27.8 70 21.1 67 67 WNW 7 11 29.80 1009 10 16 N/A
12:53 pm 12:53 Mostly Cloudy 83 28.3 69 20.6 63 63 NW 13 20 29.82 1010 10 16 N/A
1:53 pm 13:53 Partly Cloudy 85 29.4 71 21.7 63 63 WNW 9 15 29.82 1010 10 16 N/A
2:53 pm 14:53 Mostly Cloudy 84 28.9 71 21.7 65 65 NW 12 19 29.81 1010 10 16 N/A
3:53 pm 15:53 Partly Cloudy 85 29.4 68 20 57 57 N 10 17 29.81 1010 10 16 N/A
4:53 pm 16:53 Mostly Sunny 84 28.9 65 18.3 53 53 NW 10 17 29.81 1010 10 16 N/A
5:53 pm 17:53 Mostly Sunny 83 28.3 64 17.8 53 53 NW 12 19 29.81 1010 10 16 N/A
6:53 pm 18:53 Mostly Sunny 83 28.3 62 16.7 49 49 NNW 7 11 29.81 1010 10 16 N/A
7:53 pm 19:53 Sunny 80 26.7 62 16.7 54 54 NNW 7 11 29.83 1010 10 16 N/A
8:53 pm 20:53 Sunny 75 23.9 62 16.7 64 64 NNW 6 9 29.85 1011 10 16 N/A
9:53 pm 21:53 Clear 70 21.1 63 17.2 79 79 NNW 5 7 29.89 1012 10 16 N/A
10:53 pm 22:53 Clear 69 20.6 62 16.7 78 78 NNW 5 7 29.91 1013 10 16 N/A
11:53 pm 23:53 Clear 66 18.9 62 16.7 87 87 N 5 7 29.91 1013 10 16 N/A

Powered by AerisWeather